STARLINK-4577 (53564 NORAD) Tracking and Keplerian Element Data

This shows tracking and keplerian element data for the satellite.

Feedback or suggestion? Click here.




ElementValue
Catalog53564
NameSTARLINK-4577
Epoch Orbit130
Epoch Day324.91667824
Epoch Year2022
RAAN62.6147
Inclination53.2153
Eccentricity0.0001453
Argument of Perigee56.9559
Mean Anonmoly332.4765
Mean Motion15.08867219
Decay Rate-0.00073425
L11 53564U 22101AP 22324.91667824 -.00073425 00000+0 -46393-2 0 9994
L22 53564 53.2153 62.6147 0001453 56.9559 332.4765 15.08867219 1303



Live tracking and technical data element details for STARLINK-4577 (NORAD 53564). STARLINK-4577 can be tracked NOW for your location showing map with azimuth and elevation plus other details from your city location.







IsCatalogInMostPopularTable: catalog: 53564, numindb: 3
Update: records affected: 1



GetName: 53564 STARLINK-4577

Hit Count: updated at: Thu, 08 Dec 2022 19:00:21 GMT